Regional Weather Roundup
Issued by NWS

Home | Current Version | Previous Version | Text Only | Print | Product List | Glossary On
Versions: 1 2 3 4 5 6 7 8 9 10 11 12 13 14 15 16 17 18 19 20 21 22 23 24 25 26 27 28 29 30 31 32 33 34 35 36 37 38 39 40 41 42 43 44 45 46 47 48 49 50
000
ASUS43 KMPX 300110
RWRMN
WEATHER ROUNDUP FOR MINNESOTA
NATIONAL WEATHER SERVICE TWIN CITIES/CHANHASSEN MN
800 PM CDT MON MAY 29 2017


NOTE: "FAIR" INDICATES FEW OR NO CLOUDS BELOW 12,000 FEET WITH NO
SIGNIFICANT WEATHER AND/OR OBSTRUCTIONS TO VISIBILITY. N/A MEANS
CURRENT SKY AND/OR WEATHER CONDITIONS ARE NOT AVAILABLE.

MNZ060>063-068>070-300200-
   Twin Cities Metro

CITY           SKY/WX    TMP DP  RH WIND       PRES   REMARKS
TWIN CITIES    MOCLDY    60  44  55 NW8G21    29.85S
ST PAUL        PTCLDY    60  45  57 NW10      29.85R
CRYSTAL        PTCLDY    59  43  55 W9        29.83F
BLAINE         MOCLDY    61  46  59 NW12      29.84F
LAKEVILLE      CLEAR     57  46  67 NW9       29.86R
EDEN PRAIRIE   PTCLDY    63  44  50 W12       29.85R
SOUTH ST PAUL  CLEAR     61  43  52 NW12      29.84S
LAKE ELMO      FAIR      59  46  63 NW9G16    29.85S
$$
MNZ001>005-007-008-013>017-022>024-027-028-300200-
   Northwest Minnesota

CITY           SKY/WX    TMP DP  RH WIND       PRES   REMARKS
BEMIDJI        CLOUDY    50  41  71 W15G22    29.82R
HALLOCK        CLOUDY    46  43  87 N17G26    29.87S
ROSEAU         CLOUDY    48  39  71 NW14      29.83R
WARROAD        CLOUDY    46  39  76 NW13G18   29.82S
THIEF RVR FALL LGT RAIN  46  45  93 NW21      29.87R FOG
CROOKSTON      CLOUDY    50  45  81 N20       29.89R
FOSSTON        CLOUDY    46  43  87 NW15G23   29.86S
DETROIT LAKES  MOCLDY    50  45  81 NW14      29.89R
MOORHEAD       CLOUDY    54  46  76 N16       29.91R
PARK RAPIDS    CLOUDY    52  45  77 NW14      29.84R
MAHNOMEN       CLOUDY    50  43  76 NW16      29.86F
$$
MNZ006-009>011-018-025>026-300200-
   North Central Minnesota

CITY           SKY/WX    TMP DP  RH WIND       PRES   REMARKS
BAUDETTE       CLOUDY    49  39  68 NW13      29.78S
FLAG ISLAND    CLOUDY    46  39  76 NW16      29.78S
INTL FALLS     CLOUDY    50  38  63 NW12      29.75S
WASKISH        CLOUDY    52  43  71 NW10G18   29.80R
BIG FORK       CLOUDY    54  41  62 NW3       29.77S
LONGVILLE      RAIN      54  45  71 W7        29.81S
GRAND RAPIDS   CLOUDY    54  42  64 NW13      29.80S
CRANE LAKE     CLOUDY    52  43  71 CALM      29.76R
ORR            CLOUDY    52  39  62 NW8       29.73R
COOK           CLOUDY    52  41  66 W10       29.76S
WALKER         CLOUDY    51  45  80 NW8       29.82S
$$
MNZ012-019>021-037-300200-
   Northeast Minnesota

CITY           SKY/WX    TMP DP  RH WIND       PRES   REMARKS
DULUTH         MOCLDY    55  44  66 NW9       29.75S
ELY            CLOUDY    52  45  76 W9        29.73R
HIBBING        CLOUDY    52  43  71 NW9       29.75F
EVELETH        MOCLDY    53  41  65 NW7       29.76S
DULUTH HARBOR  PTCLDY    57  46  67 W10       29.77S
TWO HARBORS    PTCLDY    55  48  76 NW5       29.73R
SILVER BAY     PTCLDY    54  46  76 W5        29.71R
GRAND MARAIS     N/A     59  49  69 VRB6      29.65R
G MARAIS ARPRT CLOUDY    52  45  76 W9G18     29.67R
$$
MNZ029>031-032-039>041-046>048-054>057-064-300200-
   West Central Minnesota

CITY           SKY/WX    TMP DP  RH WIND       PRES   REMARKS
FERGUS FALLS   MOCLDY    52  52 100 NW10G17   29.88F
WHEATON        CLOUDY    57  45  62 NW22G28   29.94R
MORRIS         CLOUDY    59  45  58 NW16      29.90S
ALEXANDRIA     CLOUDY    54  46  74 NW12G20   29.89S
ELBOW LAKE     LGT RAIN  52  48  86 W13G22    29.91R
WADENA         LGT RAIN  52  46  82 NW12G20   29.86R
GLENWOOD       MOCLDY    55  45  67 W13       29.90S
APPLETON       CLOUDY    61  46  59 NW9G16    29.92S
BENSON         CLOUDY    59  43  55 N18       29.92F
ORTONVILLE     CLOUDY    61  41  48 NW16G25   29.93R
MADISON        CLOUDY    63  46  55 NW13      29.94R
WILLMAR        MOCLDY    57  48  72 NW10G18   29.92R
$$
MNZ033>034-036-042>043-049>051-058-059-300200-
   Central Minnesota

CITY           SKY/WX    TMP DP  RH WIND       PRES   REMARKS
ST CLOUD       CLOUDY    54  51  90 W9        29.86R
SAUK CENTRE    CLOUDY    53  48  85 W7        29.88S
PAYNESVILLE    CLOUDY    56  44  61 W13       29.89S
AITKIN         CLOUDY    54  46  76 NW5       29.80S
PINE RIVER     RAIN      54  46  76 W12G17    29.86R
BRAINERD       CLOUDY    56  45  66 NW8G18    29.83S
STAPLES        MOCLDY    54  43  66 W16       29.85R
LONG PRAIRIE   CLOUDY    54  45  71 W10       29.88R
LITTLE FALLS   MOCLDY    54  45  71 W7        29.85S
LITCHFIELD     CLOUDY    59  52  77 NW12G20   29.89F
BUFFALO        CLOUDY    60  45  57 W10       29.86S
MAPLE LAKE     CLOUDY    60  47  61 W15G22    29.87R
HUTCHINSON     CLOUDY    57  52  84 W12       29.90R
$$
MNZ037-044-045-052-053-300200-
   East Central Minnesota

CITY           SKY/WX    TMP DP  RH WIND       PRES   REMARKS
PRINCETON      CLOUDY    59  46  63 W10G17    29.85R
MORA           CLOUDY    55  45  67 NW9G16    29.84S
CAMBRIDGE      MOCLDY    61  46  59 W5        29.81F
RUSH CITY      CLOUDY    56  46  68 W5        29.83S
MOOSE LAKE     CLOUDY    55  45  67 CALM      29.77S
HINCKLEY       MOCLDY    55  45  67 W8        29.81S
CLOQUET        PTCLDY    55  43  62 W6        29.77F
MCGREGOR       CLOUDY    54  46  76 W6        29.80S
$$
MNZ071>073-080-081-089-090-097-098-300200-
   Southwest Minnesota

CITY           SKY/WX    TMP DP  RH WIND       PRES   REMARKS
MONTEVIDEO     MOCLDY    57  48  72 N6        29.93S
CANBY          CLOUDY    60  44  56 W6G17     29.95S
MARSHALL       PTCLDY    59  45  59 NW17      29.94F
REDWOOD FALLS  CLOUDY    58  45  62 NW9       29.92R
OLIVIA         CLOUDY    55  46  71 NW15G24   29.91F
PIPESTONE      CLEAR     59  45  58 NW7       29.97F
WINDOM         DRIZZLE   55  48  76 NW12      29.95R
WORTHINGTON    LGT RAIN  55  46  71 NW14      29.97R
JACKSON        CLOUDY    59  45  58 NW16      29.95S
TRACY          CLOUDY    58  50  73 W6        29.95F
SLAYTON        CLOUDY    57  47  70 W13       29.97S
$$
MNZ065>067-074>077-082>085-091>093-300200-
   South Central Minnesota

CITY           SKY/WX    TMP DP  RH WIND       PRES   REMARKS
MANKATO        CLOUDY    61  48  62 W18       29.89S
NEW ULM        CLOUDY    61  45  55 W17G23    29.91R
ST JAMES       LGT RAIN  57  48  72 W14G23    29.93S
FAIRMONT       CLOUDY    58  52  80 NW9       29.94S
GLENCOE        RAIN      61  50  68 W20G32    29.88R
FARIBAULT      MOCLDY    61  45  55 W8        29.88R
OWATONNA       PTCLDY    61  45  55 W16       29.88S
WASECA         MOCLDY    59  46  63 W13       29.90S
ALBERT LEA     PTCLDY    61  52  72 W13G18    29.90F
$$
MNZ078>079-086>088-094>096-300200-
   Southeast Minnesota

CITY           SKY/WX    TMP DP  RH WIND       PRES   REMARKS
ROCHESTER      PTCLDY    59  48  67 W15       29.88R
RED WING       PTCLDY    61  45  55 NW9       29.84R
STANTON        CLEAR     61  44  54 NW13G20   29.85R
DODGE CENTER   CLEAR     61  45  55 W15       29.88R
WINONA         MOCLDY    59  48  67 W6        29.85R
AUSTIN         MOCLDY    57  48  72 W13       29.89S
PRESTON        PTCLDY    58  47  69 W12       29.88R
$$
ABBREVIATIONS USED IN REMARKS
   TC - TEMPERATURES IN CELSIUS
  WCI - WIND CHILL INDEX
   HX - HEAT INDEX
  VSB - VISIBILITY
$$




USA.gov is the U.S. government's official web portal to all federal, state and local government web resources and services.